Flag for Brazil Weather past 2 weeks in Porto Velho, Rondônia, Brazil

Now
81 °F

Scattered clouds.


Feels Like: 85 °F
Forecast: 71 / 88 °F
Wind: 6 mph from North

Location: Porto Velho Aeroporto

Current Time: Dec 20, 2014 at 10:36:38 AM

Latest Report: Dec 20, 2014 at 10:00 AM


Visibility: N/A

Pressure: 29.89 "Hg

Humidity: 79%

Dew point: 73 °F

Location of Porto VelhoLocation

Historic Weather in Porto Velho — Graph

°F

Porto Velho temperature yesterday

Maximum temperature yesterday: 86 °F (at 4:00 PM)
Minimum temperature yesterday: 73 °F (at 1:00 AM)
Average temperature yesterday: 78 °F

Past Weeks' High & Low Weather Summary

 TemperatureHumidityPressure
High91 °F (Dec 18, 3:00 PM)100% (Dec 7, 4:00 PM)29.95 "Hg (Dec 7, 4:00 PM)
Low37 °F (Dec 7, 4:00 PM)19% (Dec 15, 2:00 PM)29.65 "Hg (Dec 9, 4:00 PM)
Average77 °F84%29.81 "Hg
* Reported Dec 5 9:00 AM — Dec 20 9:00 AM, Porto Velho, Weather by CustomWeather, © 2014

Note: Actual official high and low records may vary slightly from our data, if they occured in-between our weather recording intervals... More about our weather records

Advertising

Porto Velho weather history for previous 24 hours

 ConditionsComfort  
Time TempWeatherWind HumidityBarometerVisibility
9:00 AM
Dec 20
79 °FPassing clouds.8 mph79%29.86 "HgN/A
8:00 AM75 °FScattered clouds.6 mph94%29.83 "HgN/A
7:00 AM75 °FScattered clouds.7 mph94%29.80 "Hg5 mi
6:00 AM73 °FScattered clouds.3 mph100%29.77 "Hg5 mi
5:00 AM75 °FPassing clouds.3 mph94%29.77 "HgN/A
4:00 AM75 °FPassing clouds.7 mph94%29.77 "HgN/A
3:00 AM75 °FPassing clouds.2 mph100%29.77 "HgN/A
2:00 AM75 °FPassing clouds.3 mph100%29.77 "HgN/A
1:00 AM77 °FPassing clouds.5 mph94%29.80 "HgN/A
12:00 AM77 °FPassing clouds.3 mph94%29.80 "HgN/A
11:00 PM
Dec 19
77 °FPassing clouds.5 mph94%29.83 "HgN/A
10:00 PM79 °FPassing clouds.5 mph84%29.80 "HgN/A
9:00 PM79 °FPassing clouds.2 mph89%29.80 "HgN/A
8:00 PM81 °FPassing clouds.2 mph84%29.77 "HgN/A
7:00 PM79 °FPassing clouds.3 mph89%29.74 "HgN/A
6:00 PM81 °FScattered clouds.2 mph84%29.71 "HgN/A
5:00 PM84 °FScattered clouds.6 mph70%29.71 "HgN/A
4:00 PM86 °FScattered clouds.3 mph66%29.71 "HgN/A
3:00 PM84 °FBroken clouds.2 mph74%29.74 "HgN/A
2:00 PM84 °FBroken clouds.No wind74%29.77 "HgN/A
1:00 PM82 °FPartly sunny.3 mph74%29.83 "HgN/A
12:00 PM79 °FPartly sunny.2 mph84%29.86 "HgN/A
11:00 AM79 °FBroken clouds.3 mph84%29.89 "HgN/A
10:00 AM77 °FBroken clouds.9 mph94%29.89 "HgN/A
Weather by CustomWeather, © 2014

See weather overviewHow to use our weather pages